Pup — WDA9952 — position and weather

sailwx.info

Track history (hours):
 
Tides and Currents Weather Stations Pressure Air Temp Water Temp Dewpoint Dewpoint Depression Visibility Wind Speed Wind Dir Waves Ship Positions

Pup

Owner: MANSON CONSTRUCTION CO., SEATTLE, WA. More information available from US FCC via Universal Licensing System and Coast Guard Vessel Documentation Center.

Last reported at 2018-Jun-21 23:08 UTC. Time now 2018-Jun-22 01:20 UTC.
Position N 33°45' W 118°13'.

Length 13 m.

Type: Towing. MMSI: 366870730.

Date/timePositionNaut miles runAvg speedWind from/ knotsBaromVisibWave heightAir tempDewpointWater temp
2018-Jun-21 23:08N 33°45' W 118°13'0 0.2
2018-Jun-21 23:00N 33°45' W 118°13'0 0.0
2018-Jun-21 22:30N 33°45' W 118°13'0 0.0
2018-Jun-21 22:00N 33°45' W 118°13'0 0.0
2018-Jun-21 21:30N 33°45' W 118°13'0 0.0
2018-Jun-21 21:00N 33°45' W 118°13'0 0.0
2018-Jun-21 20:30N 33°45' W 118°13'0 0.0
2018-Jun-21 20:00N 33°45' W 118°13'0 0.0
2018-Jun-21 19:30N 33°45' W 118°13'0 0.0
2018-Jun-21 19:00N 33°45' W 118°13'0 0.0
2018-Jun-20 21:21N 33°45' W 118°13'0 0.5
2018-Jun-20 21:00N 33°45' W 118°13'1 2.8
2018-Jun-20 20:30N 33°46' W 118°15'1 1.3
2018-Jun-20 20:00N 33°47' W 118°15'0 0.0
2018-Jun-20 19:30N 33°47' W 118°15'0 0.0
2018-Jun-20 19:00N 33°47' W 118°15'0 0.0
2018-Jun-20 18:30N 33°47' W 118°15'0 0.0
2018-Jun-20 18:00N 33°47' W 118°15'0 0.0
2018-Jun-20 17:30N 33°47' W 118°15'0 0.0
2018-Jun-20 17:00N 33°47' W 118°15'0 0.0
2018-Jun-20 16:28N 33°47' W 118°15'0 0.0
2018-Jun-20 16:00N 33°47' W 118°15'0 0.0
2018-Jun-20 15:30N 33°47' W 118°15'0 0.0
2018-Jun-19 21:37N 33°47' W 118°15'0 0.0
2018-Jun-19 21:29N 33°47' W 118°15'0 0.0
2018-Jun-19 20:58N 33°47' W 118°15'0 0.0
2018-Jun-19 20:30N 33°47' W 118°15'0 0.0
2018-Jun-19 20:00N 33°47' W 118°15'0 0.0
2018-Jun-19 19:30N 33°47' W 118°15'0 0.0
2018-Jun-19 18:58N 33°47' W 118°15'0 0.0
2018-Jun-19 18:30N 33°47' W 118°15'0 0.0
2018-Jun-19 18:00N 33°47' W 118°15'0 0.0
2018-Jun-19 17:30N 33°47' W 118°15'0 0.1
2018-Jun-19 17:00N 33°47' W 118°15'0 0.0
2018-Jun-19 16:30N 33°47' W 118°15'0 0.0
2018-Jun-19 16:00N 33°47' W 118°15'0 0.0
2018-Jun-19 15:30N 33°47' W 118°15'0 0.0
2018-Jun-19 15:00N 33°47' W 118°15'0 0.0
2018-Jun-19 14:30N 33°47' W 118°15'  
2018-Jun-13 21:12N 33°47' W 118°15'0 0.0
2018-Jun-13 21:00N 33°47' W 118°15'0 0.0
2018-Jun-13 20:30N 33°47' W 118°15'0 0.0
2018-Jun-13 20:00N 33°47' W 118°15'0 0.0
2018-Jun-13 19:30N 33°47' W 118°15'0 0.0
2018-Jun-13 19:00N 33°47' W 118°15'1 2.5
2018-Jun-13 18:30N 33°46' W 118°13'1 1.6
2018-Jun-13 18:00N 33°45' W 118°13'3 5.3
2018-Jun-13 17:30N 33°43' W 118°15'2 3.2
2018-Jun-13 17:00N 33°44' W 118°15'0 0.2
2018-Jun-13 16:30N 33°44' W 118°15'2 3.2
2018-Jun-13 16:00N 33°43' W 118°15'3 5.4
2018-Jun-13 15:30N 33°45' W 118°13'0 0.0
2018-Jun-12 23:24N 33°45' W 118°13'0 0.0
2018-Jun-12 23:00N 33°45' W 118°13'0 0.0
2018-Jun-12 22:31N 33°45' W 118°13'0 0.0
2018-Jun-12 22:01N 33°45' W 118°13'0 0.1
2018-Jun-12 21:31N 33°45' W 118°13'0 0.0
2018-Jun-12 21:00N 33°45' W 118°13'0 0.1
2018-Jun-12 20:31N 33°45' W 118°13'0 0.0
2018-Jun-12 20:00N 33°45' W 118°13'0 0.0
2018-Jun-12 19:28N 33°45' W 118°13'0 0.0
2018-Jun-12 19:00N 33°45' W 118°13'0 0.1
2018-Jun-12 18:31N 33°45' W 118°13'0 0.0
2018-Jun-12 18:00N 33°45' W 118°13'2 4.5
2018-Jun-12 17:30N 33°43' W 118°14'2 3.1
2018-Jun-12 17:01N 33°45' W 118°15'0 0.1
2018-Jun-12 16:31N 33°45' W 118°15'0 0.4
2018-Jun-12 16:00N 33°44' W 118°15'2 3.1
2018-Jun-12 15:31N 33°43' W 118°15'3 5.2
2018-Jun-12 15:01N 33°45' W 118°13'0 0.1
2018-Jun-12 14:31N 33°45' W 118°13'0 0.0
2018-Jun-12 02:43N 33°45' W 118°13'0 0.0
2018-Jun-12 02:30N 33°45' W 118°13'0 0.0
2018-Jun-12 02:00N 33°45' W 118°13'0 0.0
2018-Jun-12 01:29N 33°45' W 118°13'0 0.0
2018-Jun-12 01:00N 33°45' W 118°13'0 0.1
2018-Jun-12 00:30N 33°45' W 118°13'0 0.1
2018-Jun-12 00:00N 33°45' W 118°13'0 0.1
2018-Jun-11 23:30N 33°45' W 118°13'  
Track history (hours):
 
Tides and Currents Weather Stations Pressure Air Temp Water Temp Dewpoint Dewpoint Depression Visibility Wind Speed Wind Dir Waves Ship Positions

Pup

Owner: MANSON CONSTRUCTION CO., SEATTLE, WA. More information available from US FCC via Universal Licensing System and Coast Guard Vessel Documentation Center.

Last reported at 2018-Jun-21 23:08 UTC. Time now 2018-Jun-22 01:20 UTC.
Position N 33°45' W 118°13'.

Length 13 m.

Type: Towing. MMSI: 366870730.

Date/timePositionNaut miles runAvg speedWind from/ knotsBaromVisibWave heightAir tempDewpointWater temp
2018-Jun-21 23:08N 33°45' W 118°13'0 0.2
2018-Jun-21 23:00N 33°45' W 118°13'0 0.0
2018-Jun-21 22:30N 33°45' W 118°13'0 0.0
2018-Jun-21 22:00N 33°45' W 118°13'0 0.0
2018-Jun-21 21:30N 33°45' W 118°13'0 0.0
2018-Jun-21 21:00N 33°45' W 118°13'0 0.0
2018-Jun-21 20:30N 33°45' W 118°13'0 0.0
2018-Jun-21 20:00N 33°45' W 118°13'0 0.0
2018-Jun-21 19:30N 33°45' W 118°13'0 0.0
2018-Jun-21 19:00N 33°45' W 118°13'0 0.0
2018-Jun-20 21:21N 33°45' W 118°13'0 0.5
2018-Jun-20 21:00N 33°45' W 118°13'1 2.8
2018-Jun-20 20:30N 33°46' W 118°15'1 1.3
2018-Jun-20 20:00N 33°47' W 118°15'0 0.0
2018-Jun-20 19:30N 33°47' W 118°15'0 0.0
2018-Jun-20 19:00N 33°47' W 118°15'0 0.0
2018-Jun-20 18:30N 33°47' W 118°15'0 0.0
2018-Jun-20 18:00N 33°47' W 118°15'0 0.0
2018-Jun-20 17:30N 33°47' W 118°15'0 0.0
2018-Jun-20 17:00N 33°47' W 118°15'0 0.0
2018-Jun-20 16:28N 33°47' W 118°15'0 0.0
2018-Jun-20 16:00N 33°47' W 118°15'0 0.0
2018-Jun-20 15:30N 33°47' W 118°15'0 0.0
2018-Jun-19 21:37N 33°47' W 118°15'0 0.0
2018-Jun-19 21:29N 33°47' W 118°15'0 0.0
2018-Jun-19 20:58N 33°47' W 118°15'0 0.0
2018-Jun-19 20:30N 33°47' W 118°15'0 0.0
2018-Jun-19 20:00N 33°47' W 118°15'0 0.0
2018-Jun-19 19:30N 33°47' W 118°15'0 0.0
2018-Jun-19 18:58N 33°47' W 118°15'0 0.0
2018-Jun-19 18:30N 33°47' W 118°15'0 0.0
2018-Jun-19 18:00N 33°47' W 118°15'0 0.0
2018-Jun-19 17:30N 33°47' W 118°15'0 0.1
2018-Jun-19 17:00N 33°47' W 118°15'0 0.0
2018-Jun-19 16:30N 33°47' W 118°15'0 0.0
2018-Jun-19 16:00N 33°47' W 118°15'0 0.0
2018-Jun-19 15:30N 33°47' W 118°15'0 0.0
2018-Jun-19 15:00N 33°47' W 118°15'0 0.0
2018-Jun-19 14:30N 33°47' W 118°15'  
2018-Jun-13 21:12N 33°47' W 118°15'0 0.0
2018-Jun-13 21:00N 33°47' W 118°15'0 0.0
2018-Jun-13 20:30N 33°47' W 118°15'0 0.0
2018-Jun-13 20:00N 33°47' W 118°15'0 0.0
2018-Jun-13 19:30N 33°47' W 118°15'0 0.0
2018-Jun-13 19:00N 33°47' W 118°15'1 2.5
2018-Jun-13 18:30N 33°46' W 118°13'1 1.6
2018-Jun-13 18:00N 33°45' W 118°13'3 5.3
2018-Jun-13 17:30N 33°43' W 118°15'2 3.2
2018-Jun-13 17:00N 33°44' W 118°15'0 0.2
2018-Jun-13 16:30N 33°44' W 118°15'2 3.2
2018-Jun-13 16:00N 33°43' W 118°15'3 5.4
2018-Jun-13 15:30N 33°45' W 118°13'0 0.0
2018-Jun-12 23:24N 33°45' W 118°13'0 0.0
2018-Jun-12 23:00N 33°45' W 118°13'0 0.0
2018-Jun-12 22:31N 33°45' W 118°13'0 0.0
2018-Jun-12 22:01N 33°45' W 118°13'0 0.1
2018-Jun-12 21:31N 33°45' W 118°13'0 0.0
2018-Jun-12 21:00N 33°45' W 118°13'0 0.1
2018-Jun-12 20:31N 33°45' W 118°13'0 0.0
2018-Jun-12 20:00N 33°45' W 118°13'0 0.0
2018-Jun-12 19:28N 33°45' W 118°13'0 0.0
2018-Jun-12 19:00N 33°45' W 118°13'0 0.1
2018-Jun-12 18:31N 33°45' W 118°13'0 0.0
2018-Jun-12 18:00N 33°45' W 118°13'2 4.5
2018-Jun-12 17:30N 33°43' W 118°14'2 3.1
2018-Jun-12 17:01N 33°45' W 118°15'0 0.1
2018-Jun-12 16:31N 33°45' W 118°15'0 0.4
2018-Jun-12 16:00N 33°44' W 118°15'2 3.1
2018-Jun-12 15:31N 33°43' W 118°15'3 5.2
2018-Jun-12 15:01N 33°45' W 118°13'0 0.1
2018-Jun-12 14:31N 33°45' W 118°13'0 0.0
2018-Jun-12 02:43N 33°45' W 118°13'0 0.0
2018-Jun-12 02:30N 33°45' W 118°13'0 0.0
2018-Jun-12 02:00N 33°45' W 118°13'0 0.0
2018-Jun-12 01:29N 33°45' W 118°13'0 0.0
2018-Jun-12 01:00N 33°45' W 118°13'0 0.1
2018-Jun-12 00:30N 33°45' W 118°13'0 0.1
2018-Jun-12 00:00N 33°45' W 118°13'0 0.1
2018-Jun-11 23:30N 33°45' W 118°13'  

Dump ship's entire track history